Volver al catálogo

STARLINK-11342

ActivoComunicacionesVLEO
NORAD 61580·PAYLOAD·🇺🇸 United States

Lanzado Oct 18, 2024 desde Cape Canaveral Space Force Station

Loading…

Próximos Pases (próximas 24 horas)

TLE

ActualizadoSource: CelesTrak SupGP

Época: Sep 15, 2026, 02:23 UTC

1 61580C 24187G   26258.09979167  .00011933  00000+0  98222-4 0  2584
2 61580  53.1567  82.2127 0001025  78.3506 282.1008 15.69722303    18

Sigue STARLINK-11342 en tiempo real con AllMySat

Download on the App Store